Date,TemperatureHighF,TemperatureAvgF,TemperatureLowF,DewpointHighF,DewpointAvgF,DewpointLowF,HumidityHigh,HumidityAvg,HumidityLow,PressureMaxIn,PressureMinIn,WindSpeedMaxMPH,WindSpeedAvgMPH,GustSpeedMaxMPH,PrecipitationSumIn
2012-1-1,26.9,19.0,8.4,25.7,16.5,4.7,95,90,84,30.23,29.58,32,9,33,0.02
2012-1-2,8.5,1.3,-15.4,5.4,-3.9,-20.6,87,78,69,30.95,30.23,27,7,29,0.00
2012-1-3,17.3,5.6,-17.1,12.0,-0.8,-21.9,86,75,54,30.94,29.90,28,4,28,0.00
2012-1-4,26.9,19.2,13.5,19.7,15.3,10.7,92,85,74,30.09,29.88,22,5,22,0.00
2012-1-5,34.4,25.6,14.2,28.9,22.3,11.1,100,87,80,29.98,29.23,19,3,24,0.00
2012-1-6,35.6,31.7,21.7,32.0,28.0,19.7,100,86,78,29.66,29.20,30,7,31,0.04
2012-1-7,21.8,17.9,15.4,19.7,14.8,12.3,92,88,82,30.27,29.66,18,3,21,0.01
2012-1-8,28.5,23.0,18.6,24.0,19.1,16.4,100,85,68,30.34,29.80,16,3,18,0.03
2012-1-9,33.4,32.0,28.6,28.3,25.7,22.9,83,78,71,29.82,29.57,22,6,24,0.00
2012-1-10,43.7,33.5,28.1,32.2,28.5,24.3,88,82,63,29.84,29.42,18,3,20,0.00
2012-1-11,32.2,24.3,7.7,30.7,22.3,4.9,96,92,87,29.84,29.46,23,4,25,0.04
2012-1-12,7.7,2.4,-2.3,4.9,-0.9,-5.7,98,86,84,30.24,29.84,19,8,22,0.00
2012-1-13,5.2,-1.5,-7.1,-0.5,-5.5,-11.3,85,82,75,30.48,30.24,13,2,16,0.00
2012-1-14,13.5,8.9,0.6,10.6,5.4,-3.4,89,85,82,30.45,30.28,14,1,14,0.00
2012-1-15,25.8,19.1,13.2,23.5,16.9,10.6,93,91,89,30.28,29.74,23,4,26,0.00
2012-1-16,25.3,17.9,6.0,22.7,13.7,2.0,92,83,74,30.26,29.66,21,6,23,0.00
2012-1-17,6.0,-1.0,-10.7,2.2,-5.6,-15.1,92,81,70,30.66,30.24,17,5,19,0.00
2012-1-18,8.0,-4.6,-15.0,4.9,-8.9,-19.7,87,81,77,30.66,29.95,20,2,22,0.02
2012-1-19,-6.8,-14.6,-22.3,-14.7,-20.3,-27.2,79,75,66,30.62,30.10,19,5,23,0.00
2012-1-20,3.2,-7.9,-17.6,-8.2,-14.6,-22.4,82,72,55,30.78,30.52,13,2,15,0.00
2012-1-21,16.9,-2.5,-26.9,10.8,-7.5,-32.7,85,78,72,30.91,30.02,23,3,23,0.00
2012-1-22,23.8,20.7,16.5,21.0,18.1,10.7,93,89,77,30.02,29.57,21,3,24,0.02
2012-1-23,21.9,16.4,7.2,20.2,14.3,4.4,94,91,88,29.87,29.41,18,4,20,0.10
2012-1-24,20.2,13.1,6.4,17.9,10.2,3.6,92,88,84,30.50,29.87,16,3,18,0.00
2012-1-25,29.6,21.3,3.8,27.8,19.2,0.6,94,91,83,30.45,29.70,19,3,27,0.00
2012-1-26,29.6,26.9,24.7,27.8,24.9,19.5,95,92,81,29.71,29.45,21,5,30,0.00
2012-1-27,29.3,20.0,11.3,22.1,16.1,8.8,92,85,61,29.83,29.55,15,3,20,0.01
2012-1-28,16.2,12.3,6.7,13.4,8.7,2.8,90,85,76,30.05,29.69,24,7,24,0.00
2012-1-29,6.8,-0.7,-15.7,2.8,-6.8,-20.8,85,75,57,30.58,30.03,21,4,22,0.00
2012-1-30,20.2,11.6,-15.6,18.2,9.0,-20.4,94,89,78,30.53,29.75,16,3,18,0.02
2012-1-31,29.4,24.9,20.3,27.6,23.3,18.2,100,94,92,29.86,29.53,17,3,21,0.04
2012-2-1,29.5,26.0,23.1,27.0,24.2,21.4,95,93,88,30.10,29.86,12,2,14,0.00
2012-2-2,30.6,27.5,23.9,28.9,25.8,21.9,96,93,89,30.46,30.10,12,1,12,0.00
2012-2-3,35.2,28.0,18.8,27.5,24.8,16.5,95,88,69,30.60,30.45,12,2,12,0.00
2012-2-4,34.8,25.7,19.1,28.4,22.8,17.1,95,89,71,30.51,30.26,15,3,16,0.00
2012-2-5,38.7,27.1,18.1,27.4,20.8,16.2,94,78,58,30.42,29.94,19,4,23,0.00
2012-2-6,28.9,22.1,5.5,24.0,18.1,1.4,93,84,72,30.71,29.85,20,6,22,0.00
2012-2-7,17.5,6.3,-4.3,1.3,-6.6,-11.2,86,59,31,31.02,30.70,12,4,16,0.00
2012-2-8,29.2,16.1,1.9,10.7,2.0,-8.8,78,55,38,30.72,30.11,19,6,24,0.00
2012-2-9,27.2,17.3,2.8,16.8,10.6,-5.1,89,75,63,30.28,29.82,18,5,20,0.01
2012-2-10,6.0,-3.5,-15.4,-5.1,-13.8,-20.3,79,62,41,30.93,30.27,18,6,21,0.00
2012-2-11,5.4,-2.0,-12.6,-1.6,-9.8,-17.5,78,69,55,30.92,30.66,25,7,26,0.00
2012-2-12,24.7,11.5,-2.4,-1.5,-4.8,-8.4,76,50,29,30.66,30.14,19,5,23,0.00
2012-2-13,31.7,21.0,9.9,15.3,6.5,-3.6,68,53,40,30.14,29.62,13,3,14,0.00
2012-2-14,28.3,23.5,17.4,20.1,16.3,12.7,91,74,68,29.87,29.63,6,1,9,0.00
2012-2-15,37.7,21.4,-0.5,26.4,15.2,-5.0,99,78,53,30.14,29.82,11,1,14,0.00
2012-2-16,28.2,25.4,19.0,26.7,21.5,14.7,94,85,71,30.04,29.79,22,4,22,0.00
2012-2-17,23.0,20.9,17.2,22.5,15.4,10.7,98,80,61,30.22,29.97,15,3,16,0.00
2012-2-18,22.7,12.8,-2.2,12.5,7.1,-7.2,92,78,60,30.48,30.22,14,2,15,0.00
2012-2-19,38.2,18.7,-3.5,22.9,10.6,-8.4,92,72,47,30.53,30.07,13,2,14,0.00
2012-2-20,34.7,29.2,23.0,26.6,21.2,16.1,89,73,52,30.12,29.61,18,5,23,0.00
2012-2-21,31.9,28.4,23.9,29.0,25.3,19.0,94,89,62,29.61,29.10,19,4,23,0.06
2012-2-22,23.9,21.6,18.9,22.2,19.5,17.1,93,91,88,29.40,29.14,19,4,19,0.02
2012-2-23,23.6,20.7,18.1,20.0,18.0,16.1,93,89,83,29.75,29.40,9,1,10,0.00
2012-2-24,24.4,19.2,11.9,19.9,16.3,9.3,91,88,79,30.04,29.68,15,3,17,0.00
2012-2-25,18.4,12.8,5.2,13.8,9.4,1.5,90,86,77,30.51,30.03,11,2,12,0.00
2012-2-26,23.1,17.9,12.9,21.4,15.6,10.2,99,91,87,30.41,29.89,23,5,23,0.11
2012-2-27,21.0,11.3,5.7,17.0,8.2,2.6,90,87,84,30.76,30.02,16,4,16,0.00
2012-2-28,28.3,21.7,8.9,24.4,19.0,5.8,94,89,84,30.66,30.03,14,2,19,0.00
2012-2-29,27.1,25.2,23.8,25.5,23.3,21.3,100,92,88,30.03,29.60,31,6,33,0.01
2012-3-1,26.8,24.4,22.2,23.9,21.5,19.2,94,89,83,29.79,29.71,5,0,6,0.04
2012-3-2,33.5,28.5,25.5,29.0,25.8,23.8,94,90,78,29.73,29.40,14,1,14,0.00
2012-3-3,26.2,12.9,-0.5,24.5,8.0,-9.6,93,80,64,30.16,29.40,18,4,18,0.00
2012-3-4,16.4,5.0,-6.8,7.7,-1.7,-11.1,92,74,63,30.41,30.14,10,1,12,0.00
2012-3-5,27.8,12.5,-12.9,22.1,6.9,-18.1,93,78,60,30.59,29.91,21,3,21,0.00
2012-3-6,42.4,31.4,23.3,30.0,25.6,20.8,92,80,60,29.91,29.38,17,4,20,0.00
2012-3-7,38.4,30.6,17.1,32.0,26.6,13.5,93,85,73,29.81,29.32,20,4,23,0.03
2012-3-8,28.7,19.8,11.3,21.0,13.9,5.2,91,78,51,30.38,29.80,27,6,32,0.02
2012-3-9,25.3,14.9,3.5,11.7,4.2,-1.1,82,64,34,30.82,30.32,26,5,28,0.00
2012-3-10,55.8,37.7,22.9,29.7,21.5,7.6,72,53,35,30.32,29.60,29,4,29,0.00
2012-3-11,59.6,45.3,26.4,33.6,30.2,22.7,88,58,33,29.89,29.60,16,3,16,0.00
2012-3-12,43.5,40.8,38.7,41.4,36.0,29.8,96,84,63,29.63,29.27,16,2,22,0.17
2012-3-13,50.8,39.5,29.2,38.6,26.7,14.9,96,65,24,29.93,29.33,24,6,26,0.00
2012-3-14,64.3,50.9,40.7,44.3,30.1,19.1,54,45,37,29.73,29.38,18,5,22,0.00
2012-3-15,53.1,40.9,27.6,24.3,13.5,2.9,80,36,15,30.03,29.68,12,1,13,0.00
2012-3-16,60.9,49.4,31.1,47.4,27.5,0.7,74,44,20,29.92,29.47,17,3,18,0.00
2012-3-17,71.7,60.6,52.8,58.7,53.8,44.6,92,79,58,29.47,29.25,19,4,27,0.00
2012-3-18,70.3,62.4,57.2,60.0,55.4,52.7,88,78,65,29.41,29.27,16,4,21,0.00
2012-3-19,72.4,63.0,57.7,59.7,55.3,51.3,90,76,60,29.37,29.23,18,5,21,0.00
2012-3-20,63.7,56.8,48.9,56.2,52.2,46.4,97,85,71,29.64,29.23,21,3,21,0.02
2012-3-21,52.8,49.2,46.0,50.7,47.4,44.6,97,93,83,29.89,29.61,12,1,14,0.60
2012-3-22,59.0,47.1,31.0,47.3,40.2,29.7,97,79,50,30.10,29.87,14,2,14,0.07
2012-3-23,49.7,45.8,40.2,48.9,44.9,39.4,100,97,95,29.88,29.75,17,3,18,0.34
2012-3-24,62.8,46.4,36.0,55.1,44.5,33.9,100,93,76,29.88,29.57,21,3,24,0.00
2012-3-25,36.0,27.4,21.6,33.9,21.8,14.7,100,80,65,30.57,29.85,20,5,23,0.00
2012-3-26,35.7,26.6,17.1,23.8,17.1,11.6,83,68,41,30.63,30.05,21,4,21,0.00
2012-3-27,55.5,39.1,29.2,45.7,34.5,22.8,93,84,66,30.04,29.07,28,5,29,0.19
2012-3-28,37.7,33.2,30.7,34.3,30.9,28.5,95,91,81,30.14,29.32,22,6,23,0.01
2012-3-29,36.2,29.8,25.8,28.5,25.0,22.6,92,83,62,30.24,29.97,16,3,18,0.07
2012-3-30,31.9,29.4,25.9,30.3,27.7,23.8,95,93,92,29.97,29.85,16,4,22,0.03
2012-3-31,38.7,33.1,29.4,38.1,32.2,28.1,98,96,95,29.93,29.58,20,3,23,0.01
2012-4-1,53.7,42.0,34.7,43.5,37.4,30.3,98,86,42,29.75,29.50,17,2,17,0.00
2012-4-2,48.4,38.6,32.1,36.0,32.6,30.2,94,81,52,29.86,29.68,21,5,23,0.15
2012-4-3,53.0,43.1,35.2,37.5,30.7,22.4,97,66,35,29.98,29.75,20,5,22,0.00
2012-4-4,52.4,40.5,29.0,28.1,24.7,21.5,87,55,32,30.09,29.89,14,3,15,0.00
2012-4-5,48.5,35.5,24.3,28.8,22.4,18.3,92,62,33,30.28,30.06,11,2,12,0.00
2012-4-6,53.6,40.4,30.3,27.7,22.1,17.4,62,49,32,30.32,30.04,15,3,16,0.00
2012-4-7,56.1,42.3,31.2,39.7,30.8,20.7,95,66,40,30.05,29.73,21,3,25,0.17
2012-4-8,46.4,36.4,29.1,33.4,24.2,18.9,89,64,35,29.92,29.73,26,6,29,0.00
2012-4-9,31.2,27.9,24.7,26.0,22.8,17.9,92,81,67,30.13,29.76,17,5,23,0.02
2012-4-10,37.2,29.0,22.7,21.6,18.8,15.1,82,66,52,30.29,30.10,21,7,24,0.00
2012-4-11,46.2,33.9,26.3,28.9,24.4,20.6,87,70,43,30.42,30.19,15,2,16,0.00
2012-4-12,54.4,40.1,24.5,30.3,26.4,22.1,93,62,34,30.22,30.00,13,2,15,0.00
2012-4-13,56.1,44.5,35.0,37.1,29.5,22.2,87,57,36,30.01,29.46,21,4,26,0.02
2012-4-14,53.4,45.9,40.9,45.3,41.7,36.4,96,86,67,29.52,29.35,24,5,26,0.01
2012-4-15,46.3,40.8,31.0,42.8,38.0,29.7,96,90,78,29.53,29.33,16,2,24,0.95
2012-4-16,30.5,20.2,16.4,29.2,18.1,14.0,95,91,89,30.42,29.25,10,0,21,0.19
2012-4-17,36.4,25.1,10.7,32.0,22.1,8.4,92,89,78,30.51,30.17,12,2,16,0.00
2012-4-18,36.7,33.4,29.9,36.7,31.4,25.8,100,93,83,30.17,29.61,20,5,22,0.26
2012-4-19,45.7,35.4,28.3,30.3,26.0,20.4,95,71,40,30.11,29.95,12,2,15,0.00
2012-4-20,45.0,34.4,22.6,29.0,24.3,20.4,93,69,43,30.08,29.96,14,2,15,0.00
2012-4-21,41.4,33.7,27.8,29.0,25.1,21.6,88,71,54,30.08,29.99,18,3,18,0.00
2012-4-22,48.6,37.6,29.5,33.1,24.1,15.4,93,60,34,30.25,30.08,14,2,15,0.00
2012-4-23,55.4,40.7,25.2,35.3,28.1,22.9,94,66,34,30.15,29.71,12,2,14,0.00
2012-4-24,55.5,42.8,28.4,35.5,30.6,26.6,94,66,37,29.71,29.45,18,2,19,0.00
2012-4-25,47.4,40.8,35.6,36.8,32.3,25.6,95,74,44,29.60,29.43,14,1,14,0.08
2012-4-26,45.0,34.7,25.1,37.0,22.2,15.4,95,64,32,30.23,29.60,24,7,26,0.00
2012-4-27,48.2,34.5,21.3,25.3,18.3,11.1,92,57,23,30.30,30.20,12,2,12,0.00
2012-4-28,51.9,39.3,27.4,19.8,14.9,10.7,57,39,20,30.28,30.14,19,3,22,0.00
2012-4-29,57.4,45.4,27.9,27.5,21.3,12.8,66,40,21,30.24,29.82,17,3,17,0.00
2012-4-30,54.6,44.7,39.8,42.5,36.1,17.5,94,74,34,29.83,29.52,14,3,17,0.00
2012-5-1,55.2,49.5,41.3,51.7,46.3,36.7,96,89,80,29.60,29.22,22,4,22,0.36
2012-5-2,69.0,59.3,51.9,56.2,49.9,41.4,96,74,44,29.51,29.18,21,3,22,0.02
2012-5-3,62.1,51.9,45.6,52.2,47.9,42.7,98,87,67,29.79,29.41,16,2,20,0.22
2012-5-4,47.2,43.5,39.6,44.6,40.6,35.1,97,90,77,30.09,29.77,12,2,14,0.00
2012-5-5,55.6,45.4,38.4,42.5,38.4,35.0,92,77,59,30.05,29.91,16,4,18,0.02
2012-5-6,52.6,46.4,43.1,43.4,36.6,31.7,93,69,50,29.98,29.78,19,3,21,0.03
2012-5-7,59.0,48.6,41.1,46.9,42.2,37.8,100,81,52,29.83,29.50,20,2,21,0.08
2012-5-8,47.5,43.2,35.0,43.6,40.2,33.3,96,89,81,29.86,29.50,15,2,15,0.00
2012-5-9,61.2,46.9,32.3,38.8,32.2,24.6,96,64,30,29.88,29.64,19,2,19,0.00
2012-5-10,69.0,53.9,34.3,42.1,36.4,32.5,95,57,30,29.71,29.45,17,3,18,0.00
2012-5-11,66.0,53.5,46.4,49.7,41.3,33.1,91,64,52,29.91,29.43,19,4,21,0.01
2012-5-12,65.5,51.6,33.2,38.5,31.8,26.5,95,53,25,30.15,29.89,17,3,21,0.00
2012-5-13,72.8,61.6,47.2,38.7,34.0,28.6,56,36,25,29.94,29.44,27,6,29,0.00
2012-5-14,75.7,63.5,49.2,41.5,37.4,33.3,68,40,24,29.55,29.30,16,3,18,0.01
2012-5-15,59.5,52.2,43.9,45.6,36.4,27.0,82,56,36,29.85,29.16,27,5,27,0.00
2012-5-16,59.3,47.5,30.8,33.7,29.0,25.1,93,52,29,30.01,29.81,15,2,17,0.00
2012-5-17,65.5,55.4,44.2,45.9,37.4,28.0,68,51,37,29.85,29.38,24,4,26,0.00
2012-5-18,80.8,67.6,55.1,55.9,49.9,41.9,71,54,41,29.41,29.22,21,4,29,0.00
2012-5-19,82.0,71.3,59.4,61.5,55.1,48.9,96,58,40,29.39,29.20,25,4,26,0.31
2012-5-20,59.3,48.2,37.9,58.1,47.0,36.9,100,96,91,29.97,29.23,17,4,22,0.90
2012-5-21,65.8,52.1,35.5,46.8,37.4,29.4,97,63,32,30.11,29.83,13,2,13,0.01
2012-5-22,53.0,49.4,46.4,46.5,42.1,33.5,92,76,49,29.83,29.49,18,4,24,0.22
2012-5-23,65.5,55.5,49.7,54.0,49.1,43.0,96,80,61,29.49,29.13,20,4,24,0.76
2012-5-24,56.6,54.4,49.6,55.8,53.3,48.8,98,96,92,29.16,28.87,17,3,21,2.07
2012-5-25,61.5,52.2,46.3,49.7,44.8,40.5,97,78,49,29.93,29.08,19,5,25,0.01
2012-5-26,62.1,50.4,35.0,49.3,43.3,33.7,97,78,61,30.05,29.86,11,2,14,0.00
2012-5-27,50.2,47.5,45.1,49.4,46.0,42.1,98,94,78,29.87,29.44,18,4,22,0.51
2012-5-28,69.8,55.9,47.8,58.8,52.2,47.3,99,89,58,29.47,29.12,19,3,20,0.12
2012-5-29,53.2,46.3,38.5,49.9,43.6,35.5,96,90,79,29.68,29.19,16,3,21,0.09
2012-5-30,51.1,41.2,33.4,37.9,35.4,31.6,96,81,55,29.94,29.67,12,2,14,0.05
2012-5-31,66.5,48.7,31.0,41.2,35.4,29.9,97,65,32,29.95,29.71,10,1,13,0.00
2012-6-1,70.0,53.4,33.7,45.0,36.3,25.7,97,58,28,29.75,29.39,11,1,12,0.00
2012-6-2,72.8,58.7,39.6,50.1,41.7,34.6,94,57,31,29.42,29.16,20,3,22,0.00
2012-6-3,75.6,62.5,46.3,55.2,46.7,41.8,93,59,34,29.44,29.25,14,2,15,0.00
2012-6-4,74.9,60.1,52.0,55.9,50.8,46.2,94,73,50,29.70,29.40,14,1,16,0.15
2012-6-5,73.8,61.6,50.6,52.1,47.8,43.7,85,63,40,29.79,29.60,14,2,14,0.00
2012-6-6,74.8,60.5,44.6,61.5,51.7,42.4,95,74,46,29.80,29.65,9,1,10,0.15
2012-6-7,77.8,65.4,49.8,60.1,55.0,48.7,96,72,43,29.80,29.48,7,1,12,0.00
2012-6-8,75.1,65.3,59.0,66.4,61.1,54.7,96,87,71,29.53,29.19,16,1,18,0.11
2012-6-9,84.5,70.6,53.7,68.5,60.4,52.9,98,73,47,29.26,29.05,13,1,16,0.00
2012-6-10,83.5,73.8,64.0,66.6,61.5,56.3,80,66,53,29.16,28.93,21,4,25,0.01
2012-6-11,74.2,62.4,49.1,63.4,53.5,46.0,94,75,44,29.34,28.94,23,4,30,0.06
2012-6-12,57.9,48.0,39.2,47.0,39.1,35.1,100,73,46,29.94,29.33,19,5,24,0.04
2012-6-13,71.3,58.2,40.0,51.9,46.1,38.4,96,67,44,29.94,29.62,15,2,20,0.00
2012-6-14,58.7,56.2,50.9,55.9,51.7,48.1,96,86,69,29.66,29.43,20,4,25,0.21
2012-6-15,76.7,66.5,55.9,62.3,58.3,54.8,98,77,51,29.59,29.49,14,2,16,0.00
2012-6-16,80.3,63.8,51.2,67.6,58.1,50.4,98,83,56,29.64,29.18,28,3,28,1.23
2012-6-17,72.5,62.1,53.0,58.0,54.2,51.2,97,77,50,29.30,29.08,20,4,22,0.02
2012-6-18,76.0,64.4,57.3,65.8,59.4,54.3,97,85,64,29.15,28.83,18,2,20,0.38
2012-6-19,65.8,57.9,52.0,58.9,55.6,50.9,98,92,73,29.55,29.15,19,2,29,0.93
2012-6-20,64.3,61.4,57.8,63.7,60.7,57.0,100,98,97,29.42,29.17,21,2,24,1.17
2012-6-21,65.8,58.9,48.7,59.4,53.2,47.3,98,83,58,29.60,29.28,22,4,24,0.02
2012-6-22,71.8,60.1,46.4,55.6,51.2,45.3,98,75,49,29.66,29.52,14,2,18,0.00
2012-6-23,75.2,61.7,46.9,58.8,53.2,46.1,98,76,43,29.62,29.44,16,1,18,0.00
2012-6-24,70.2,59.7,47.4,54.4,48.8,41.5,97,71,38,29.90,29.53,16,2,16,0.03
2012-6-25,74.5,59.4,41.0,54.2,46.1,40.2,98,66,39,29.98,29.69,10,1,12,0.00
2012-6-26,78.8,65.5,52.3,59.1,51.8,43.3,76,62,45,29.72,29.30,16,2,18,0.00
2012-6-27,85.2,71.8,60.8,70.3,60.3,52.0,86,68,54,29.31,29.06,15,1,16,0.00
2012-6-28,80.6,72.4,65.1,69.2,56.2,48.3,94,60,33,29.30,29.08,20,5,24,0.00
2012-6-29,78.7,70.4,61.1,56.3,52.4,49.0,72,54,36,29.28,29.18,25,5,26,0.00
2012-6-30,78.0,67.5,56.2,59.0,55.2,50.9,88,67,40,29.49,29.25,18,3,20,0.00
2012-7-1,85.0,70.2,54.2,65.2,59.5,53.1,98,72,41,29.53,29.40,10,1,12,0.20
2012-7-2,86.3,75.5,65.8,70.7,65.0,56.9,96,71,52,29.42,29.12,14,2,22,0.32
2012-7-3,85.5,74.3,62.8,72.3,66.0,61.3,97,77,48,29.28,28.98,15,2,15,0.01
2012-7-4,82.5,68.4,56.7,66.0,62.1,55.8,98,82,53,29.56,29.23,18,2,18,0.63
2012-7-5,81.8,73.4,63.6,68.4,60.2,52.7,95,66,39,29.48,29.22,18,4,20,0.00
2012-7-6,69.0,61.0,55.2,61.3,57.7,54.4,97,89,61,29.75,29.47,8,0,12,0.48
2012-7-7,78.5,66.5,53.9,65.1,57.5,53.3,99,76,44,29.82,29.65,13,1,14,0.01
2012-7-8,75.8,64.7,53.1,59.2,55.2,52.1,98,75,46,29.74,29.63,14,2,16,0.00
2012-7-9,76.8,65.0,52.5,60.2,55.1,51.6,98,73,44,29.77,29.68,12,2,14,0.00
2012-7-10,80.3,67.7,53.3,61.7,55.5,51.3,96,67,41,29.82,29.61,11,1,12,0.00
2012-7-11,84.8,74.3,63.2,65.3,61.1,54.4,85,65,45,29.67,29.43,17,2,17,0.00
2012-7-12,83.5,74.4,65.7,65.4,60.5,57.1,77,63,45,29.52,29.42,15,2,18,0.00
2012-7-13,83.6,72.9,65.4,70.4,64.3,59.0,91,75,60,29.49,29.36,13,2,16,0.00
2012-7-14,86.5,70.0,59.6,71.5,64.9,58.8,98,86,50,29.56,29.39,11,1,18,0.64
2012-7-15,81.2,70.0,60.2,67.9,62.3,56.9,99,79,46,29.63,29.48,8,0,10,0.01
2012-7-16,85.5,70.8,61.3,74.3,65.2,56.3,97,83,66,29.50,29.01,18,2,20,0.20
2012-7-17,80.1,68.3,60.6,62.9,60.6,57.3,97,78,48,29.54,29.23,9,1,10,0.01
2012-7-18,74.7,64.7,54.9,59.5,55.1,49.0,97,73,52,29.68,29.53,11,1,13,0.00
2012-7-19,76.3,64.0,50.7,57.4,51.5,47.6,93,65,47,29.76,29.62,12,1,12,0.00
2012-7-20,85.6,71.8,56.9,74.3,62.7,47.1,90,74,60,29.75,29.34,16,2,16,0.01
2012-7-21,79.3,70.1,57.5,69.1,57.4,52.6,96,66,43,29.62,29.35,14,2,16,0.00
2012-7-22,84.8,69.5,53.8,66.0,59.8,52.9,100,74,42,29.62,29.26,14,1,17,0.37
2012-7-23,74.8,68.4,62.2,64.8,61.0,53.7,96,78,58,29.59,29.21,16,2,17,0.00
2012-7-24,83.0,66.9,50.1,59.4,52.1,44.1,97,63,34,29.70,29.42,10,1,11,0.00
2012-7-25,70.1,63.6,57.7,67.0,61.1,48.5,98,92,61,29.44,29.09,11,1,14,2.00
2012-7-26,65.7,59.8,54.1,61.7,58.3,53.5,98,95,83,29.54,29.19,10,1,11,0.08
2012-7-27,75.5,62.6,48.3,59.6,54.0,47.5,99,76,45,29.71,29.54,6,0,7,0.00
2012-7-28,79.2,66.5,54.2,63.1,56.4,50.8,90,71,45,29.75,29.58,12,1,13,0.00
2012-7-29,79.8,66.3,58.5,67.4,60.5,54.9,97,83,60,29.62,29.34,23,1,25,0.50
2012-7-30,73.3,65.8,59.3,65.7,62.1,58.3,98,88,71,29.53,29.28,16,3,18,0.65
2012-7-31,79.7,67.0,50.6,63.0,58.2,49.8,98,76,52,29.63,29.43,10,1,13,0.00
2012-8-1,83.9,72.7,62.4,71.4,64.5,59.9,92,76,56,29.45,29.11,16,3,21,0.00
2012-8-2,75.3,67.2,59.9,63.9,61.7,58.5,97,83,60,29.50,29.17,12,2,13,0.04
2012-8-3,72.7,64.1,57.1,63.2,59.2,55.5,96,85,69,29.60,29.40,12,2,13,0.00
2012-8-4,72.8,64.4,54.3,64.5,59.4,52.6,97,85,54,29.41,29.14,19,4,23,0.27
2012-8-5,69.2,59.2,50.4,52.8,48.9,43.0,95,71,47,29.72,29.41,20,5,24,0.04
2012-8-6,78.2,66.8,57.8,65.5,58.3,52.5,86,75,60,29.66,29.35,16,2,19,0.01
2012-8-7,71.8,61.7,49.6,58.5,54.8,48.5,98,79,59,29.68,29.42,12,1,13,0.00
2012-8-8,72.5,62.6,55.2,60.5,56.9,53.4,97,82,60,29.72,29.58,14,1,15,0.60
2012-8-9,62.7,56.6,47.6,57.0,53.2,46.4,98,89,67,29.99,29.56,16,2,17,0.34
2012-8-10,70.9,56.9,42.6,54.8,49.0,41.8,98,78,48,30.02,29.77,11,1,12,0.00
2012-8-11,76.8,59.9,43.3,58.2,50.2,42.5,98,74,42,29.83,29.64,9,0,10,0.01
2012-8-12,74.1,61.5,47.0,61.0,54.9,46.2,98,81,57,29.68,29.51,9,1,11,0.00
2012-8-13,71.3,61.3,49.1,60.8,53.6,47.7,100,78,49,29.64,29.51,14,2,16,0.01
2012-8-14,72.0,59.6,46.3,58.9,52.3,45.5,98,79,52,29.65,29.51,10,1,14,0.00
2012-8-15,73.8,61.8,46.7,61.8,54.1,45.9,98,78,51,29.55,29.14,16,2,20,0.02
2012-8-16,64.5,57.3,50.3,62.6,53.2,44.3,96,86,72,29.62,29.10,24,6,28,0.03
2012-8-17,65.8,54.4,44.1,51.7,46.2,40.7,94,75,56,29.78,29.63,19,3,20,0.00
2012-8-18,67.4,55.1,44.3,56.3,49.2,41.4,97,82,54,29.74,29.59,12,1,12,0.04
2012-8-19,63.9,52.1,37.1,49.6,43.2,36.1,98,75,45,29.82,29.66,14,2,16,0.00
2012-8-20,71.3,58.4,47.8,57.5,51.0,46.0,98,78,50,29.69,29.54,20,2,22,0.00
2012-8-21,76.9,62.2,46.9,56.5,50.9,46.1,98,70,41,29.71,29.46,17,2,17,0.00
2012-8-22,82.0,69.4,60.4,64.8,58.0,53.4,90,68,45,29.51,29.40,14,2,14,0.00
2012-8-23,75.6,65.3,56.0,64.5,59.8,54.3,95,83,62,29.52,29.33,14,2,19,0.04
2012-8-24,82.8,69.0,59.8,70.6,64.4,58.7,97,86,61,29.42,29.24,12,2,16,0.21
2012-8-25,78.0,70.1,65.8,69.2,65.2,62.5,94,85,69,29.42,29.27,25,2,25,0.00
2012-8-26,78.7,68.8,59.5,63.8,56.7,47.3,96,69,34,29.54,29.35,24,2,24,0.01
2012-8-27,70.3,61.4,51.2,58.3,54.7,49.9,96,80,60,29.84,29.54,12,2,15,0.00
2012-8-28,74.8,60.2,46.4,60.4,53.0,45.6,100,80,51,29.91,29.66,11,1,12,0.00
2012-8-29,82.3,68.7,56.5,67.8,59.7,51.6,86,74,57,29.68,29.26,15,2,15,0.00
2012-8-30,83.6,70.7,61.9,68.7,62.4,53.7,86,76,59,29.40,29.09,18,3,20,0.00
2012-8-31,77.0,63.7,49.0,56.0,50.8,46.0,96,67,34,29.88,29.40,17,2,17,0.00
2012-9-1,79.4,62.1,44.8,61.3,50.6,44.0,98,70,38,30.00,29.67,11,1,13,0.06
2012-9-2,73.8,65.3,51.5,59.3,54.4,44.7,95,69,48,29.75,29.36,16,2,18,0.00
2012-9-3,82.7,70.1,55.2,64.5,57.1,46.3,96,69,30,29.47,29.31,11,1,13,0.00
2012-9-4,81.8,63.9,51.0,59.8,53.5,46.4,98,74,31,29.56,29.28,14,1,20,0.15
2012-9-5,69.6,60.0,51.9,55.7,52.2,46.7,96,77,46,29.47,29.20,14,2,16,0.03
2012-9-6,65.3,57.6,49.2,54.8,49.8,47.2,93,76,54,29.58,29.44,18,3,20,0.00
2012-9-7,57.7,51.7,47.6,49.9,48.0,45.3,100,87,68,29.68,29.53,23,3,23,0.03
2012-9-8,52.9,49.1,42.6,50.9,47.5,41.5,97,94,85,29.72,29.43,14,2,15,0.11
2012-9-9,62.6,52.0,43.5,50.0,44.9,40.6,96,79,45,29.92,29.72,13,2,15,0.01
2012-9-10,70.4,59.2,45.0,54.4,50.4,43.9,96,74,55,29.85,29.33,19,2,21,0.01
2012-9-11,75.7,64.8,58.1,60.5,55.3,50.9,80,72,54,29.39,29.22,16,2,18,0.00
2012-9-12,63.9,58.3,50.1,57.6,38.8,31.1,81,49,31,29.83,29.23,20,4,24,0.00
2012-9-13,56.2,49.2,39.1,46.5,41.1,35.1,95,74,57,30.18,29.82,16,1,16,0.00
2012-9-14,57.4,46.9,36.1,45.1,41.1,34.8,97,82,55,30.24,30.10,13,2,15,0.07
2012-9-15,64.3,51.8,35.2,47.8,43.0,33.9,97,74,47,30.23,29.64,14,2,17,0.01
2012-9-16,71.0,56.1,41.5,54.7,46.2,40.1,98,72,43,29.67,29.47,13,2,15,0.00
2012-9-17,51.6,44.1,31.5,43.0,37.8,29.9,100,79,59,29.87,29.53,17,2,20,0.01
2012-9-18,49.2,38.9,31.0,34.8,31.1,25.5,96,76,43,29.91,29.72,14,2,14,0.01
2012-9-19,59.4,46.4,37.8,49.7,42.2,32.7,95,86,63,29.71,29.17,18,3,24,0.23
2012-9-20,51.6,45.1,41.1,45.0,39.9,34.5,95,83,55,29.58,29.24,20,4,25,0.12
2012-9-21,50.9,42.6,38.5,42.6,38.1,33.5,96,85,55,29.59,29.46,18,2,19,0.14
2012-9-22,43.2,38.4,34.1,39.0,33.4,29.7,95,83,62,30.09,29.58,18,5,23,0.02
2012-9-23,49.2,40.7,35.4,35.8,33.1,30.6,86,75,57,30.13,29.83,16,4,18,0.00
2012-9-24,59.0,47.4,35.9,40.0,34.2,29.0,90,61,48,29.83,29.29,26,5,27,0.00
2012-9-25,47.9,38.7,26.9,38.6,33.6,25.7,96,83,60,29.87,29.62,14,1,15,0.00
2012-9-26,53.7,43.1,30.8,41.0,34.7,29.5,97,75,49,30.18,29.83,12,1,12,0.01
2012-9-27,62.6,43.9,27.7,41.6,34.4,26.7,97,74,39,30.30,30.01,13,1,14,0.00
2012-9-28,67.5,49.7,33.2,46.3,39.3,32.1,97,73,38,30.08,29.82,12,1,13,0.00
2012-9-29,68.2,50.1,31.9,48.5,39.0,30.9,97,71,32,30.05,29.80,8,1,9,0.00
2012-9-30,65.0,52.0,43.1,46.2,40.4,35.9,83,66,47,29.86,29.53,14,1,14,0.00
2012-10-1,60.9,52.1,41.6,51.1,43.4,36.0,89,73,53,29.72,29.44,16,3,18,0.00
2012-10-2,57.9,44.6,29.5,45.9,37.4,28.2,100,77,53,29.84,29.60,17,2,19,0.00
2012-10-3,73.7,56.6,46.9,45.7,41.9,34.6,86,61,34,29.68,29.48,14,1,15,0.00
2012-10-4,56.1,44.3,31.9,49.7,39.1,28.6,95,82,63,29.61,29.30,31,5,31,0.00
2012-10-5,36.4,32.2,30.3,34.1,30.1,27.9,95,92,86,29.98,29.48,25,7,29,0.07
2012-10-6,38.8,32.4,29.3,29.6,26.8,23.8,94,81,60,30.17,29.96,23,5,23,0.04
2012-10-7,43.8,34.2,28.1,27.4,25.3,23.5,88,72,49,30.10,29.64,17,3,17,0.00
2012-10-8,46.2,39.1,35.7,38.7,29.9,23.0,96,71,52,29.65,29.28,17,3,17,0.23
2012-10-9,42.7,36.4,29.7,38.4,33.7,27.1,95,90,72,29.68,29.28,22,6,26,0.05
2012-10-10,36.1,31.5,27.6,31.0,25.3,21.2,94,78,57,29.92,29.66,23,4,24,0.01
2012-10-11,37.2,32.4,29.7,31.1,27.3,21.9,95,82,60,30.32,29.77,20,4,21,0.05
2012-10-12,39.7,32.2,22.2,30.4,23.5,17.2,94,72,43,30.51,29.98,15,3,19,0.00
2012-10-13,44.3,36.8,28.5,39.4,33.3,27.0,95,88,63,29.99,29.55,15,2,29,0.00
2012-10-14,40.8,33.4,26.4,35.6,30.9,25.2,96,91,80,29.82,29.71,14,2,14,0.01
2012-10-15,50.9,36.5,28.8,36.8,31.6,27.2,94,83,58,29.90,29.60,12,2,14,0.00
2012-10-16,60.9,47.4,38.3,50.0,42.1,31.7,93,82,67,29.61,29.05,21,3,21,0.00
2012-10-17,54.6,48.0,41.5,49.9,46.0,40.1,96,93,83,29.09,28.80,16,2,17,0.02
2012-10-18,50.7,48.1,43.8,50.0,47.3,42.7,98,97,95,29.15,28.68,19,3,22,0.75
2012-10-19,46.2,41.8,31.1,43.4,39.9,29.8,97,93,83,29.61,29.15,9,1,10,0.09
2012-10-20,51.2,41.6,32.1,44.7,38.0,31.0,98,88,68,29.66,29.52,8,1,10,0.00
2012-10-21,49.2,42.3,37.2,45.9,40.2,35.1,97,92,82,29.80,29.60,10,1,14,0.02
2012-10-22,54.4,45.6,40.9,43.6,40.9,38.7,97,85,59,29.97,29.76,14,2,16,0.00
2012-10-23,47.1,43.3,40.4,46.2,42.0,38.5,100,95,86,29.91,29.56,26,6,26,0.36
2012-10-24,52.3,49.6,46.3,50.5,48.7,45.7,98,97,90,29.65,29.50,15,2,15,0.35
2012-10-25,46.2,36.0,30.7,45.4,35.1,29.1,100,96,94,29.78,29.42,21,5,21,0.38
2012-10-26,31.7,29.3,25.8,30.9,26.0,18.9,100,87,75,30.30,29.78,22,6,26,0.00
2012-10-27,30.7,26.9,23.4,23.9,20.2,17.4,91,76,60,30.45,30.28,15,2,17,0.00
2012-10-28,34.7,27.5,17.6,28.8,24.1,15.5,93,87,75,30.50,30.39,13,1,16,0.00
2012-10-29,40.3,32.4,25.1,31.8,27.8,23.1,95,84,66,30.46,30.35,9,0,10,0.00
2012-10-30,33.7,27.7,23.1,24.8,21.2,17.3,94,77,54,30.43,30.13,17,3,18,0.00
2012-10-31,34.6,26.4,19.4,24.5,20.3,17.9,100,79,55,30.13,29.88,15,4,16,0.00
2012-11-1,32.8,30.2,23.9,30.1,25.7,19.5,94,83,68,30.09,29.77,19,6,22,0.00
2012-11-2,30.6,23.2,18.6,22.3,18.6,16.3,92,83,69,30.41,30.08,19,3,20,0.00
2012-11-3,32.4,26.9,19.2,25.8,23.1,17.3,92,86,76,30.44,30.32,6,1,7,0.00
2012-11-4,26.7,22.7,14.4,23.4,19.9,11.8,93,89,84,30.45,30.34,7,0,7,0.00
2012-11-5,32.1,27.3,23.4,27.0,23.1,19.6,89,84,75,30.43,29.91,14,1,15,0.00
2012-11-6,33.7,32.5,29.1,32.7,31.2,26.3,97,95,90,29.91,29.64,13,2,18,0.01
2012-11-7,35.7,33.7,31.8,34.5,32.5,30.8,97,95,94,30.02,29.85,5,0,5,0.00
2012-11-8,43.4,36.1,32.5,37.3,33.7,29.5,96,91,76,30.03,29.71,29,4,29,0.00
2012-11-9,33.2,28.2,21.6,29.9,24.3,16.8,94,85,71,30.32,30.02,16,3,16,0.00
2012-11-10,38.7,30.1,22.1,37.8,28.2,17.4,97,93,82,30.30,29.43,22,7,26,0.09
2012-11-11,48.6,36.1,21.4,48.1,34.8,18.1,98,95,86,29.64,29.21,19,5,23,0.07
2012-11-12,23.2,20.3,17.7,20.4,16.7,13.4,91,86,78,30.23,29.64,19,5,20,0.00
2012-11-13,31.9,24.6,18.4,23.3,19.7,16.5,93,82,61,30.42,30.23,16,3,17,0.00
2012-11-14,34.8,31.5,27.7,30.7,27.7,21.5,95,85,77,30.36,30.08,15,2,15,0.00
2012-11-15,37.1,31.0,17.6,32.1,23.0,12.4,91,73,45,30.59,29.99,21,5,22,0.00
2012-11-16,32.7,23.5,11.8,26.2,19.3,9.1,100,84,72,30.70,30.40,15,2,16,0.00
2012-11-17,42.5,37.2,29.1,37.7,33.0,26.2,94,85,76,30.40,30.12,19,5,22,0.01
2012-11-18,43.4,40.5,37.9,38.9,35.0,31.8,95,81,69,30.14,29.95,15,4,16,0.06
2012-11-19,46.5,41.6,37.0,37.4,34.9,32.4,90,77,67,29.98,29.82,14,2,16,0.00
2012-11-20,46.0,34.0,28.4,34.4,30.3,27.1,96,87,59,30.14,29.90,13,2,13,0.00
2012-11-21,48.0,39.8,34.1,37.7,33.2,26.9,85,77,63,29.91,29.43,17,2,19,0.00
2012-11-22,49.5,40.0,23.5,42.1,36.3,21.6,96,87,74,29.53,29.20,18,4,18,0.26
2012-11-23,23.3,15.5,11.8,21.5,13.3,9.4,94,91,90,30.50,29.53,19,5,21,0.05
2012-11-24,18.8,14.2,9.9,16.9,11.9,7.3,92,90,89,30.49,29.86,9,2,12,0.07
2012-11-25,18.6,15.8,8.2,16.7,13.6,5.4,92,91,88,30.31,29.83,15,4,19,0.00
2012-11-26,9.9,8.0,6.4,7.2,5.2,3.6,89,88,87,30.62,30.30,13,3,13,0.00
2012-11-27,22.0,15.3,7.7,20.0,13.0,4.7,99,90,87,30.50,30.13,19,4,19,0.00
2012-11-28,20.9,11.1,4.4,19.2,8.5,0.9,97,89,85,30.57,30.27,15,4,18,0.00
2012-11-29,19.7,10.1,7.4,18.0,7.2,4.1,93,88,84,30.68,30.31,13,3,13,0.00
2012-11-30,28.5,20.0,9.9,27.5,18.1,7.3,96,92,89,30.68,30.13,18,4,19,0.00
2012-12-1,32.0,30.8,28.5,31.2,29.9,27.5,97,97,96,30.13,29.66,20,4,26,0.01
2012-12-2,33.6,32.2,31.7,32.8,31.5,31.0,98,97,97,29.88,29.68,20,3,23,0.00
2012-12-3,42.3,37.2,30.2,41.8,35.8,24.9,100,95,79,29.68,29.19,29,6,30,0.00
2012-12-4,30.0,16.7,12.3,24.5,11.5,7.0,86,80,76,30.62,29.44,30,8,30,0.00
2012-12-5,29.4,17.9,1.8,22.3,13.7,-1.8,90,83,73,30.75,29.86,29,4,29,0.00
2012-12-6,35.8,29.3,19.4,29.8,24.3,15.1,91,82,67,29.88,29.51,23,7,31,0.00
2012-12-7,19.6,15.9,7.4,17.5,11.1,3.7,92,81,78,30.32,29.88,22,4,22,0.00
2012-12-8,20.5,11.1,-5.0,18.0,5.5,-8.8,91,78,57,30.45,30.28,11,0,13,0.00
2012-12-9,22.8,18.9,10.4,20.8,16.6,7.6,92,91,88,30.30,30.13,11,2,11,0.04
2012-12-10,13.3,8.8,5.3,10.9,5.8,2.2,90,87,85,30.15,29.96,9,1,11,0.01
2012-12-11,16.1,9.5,3.1,13.9,6.0,-0.9,92,85,80,30.25,29.84,14,3,18,0.00
2012-12-12,22.8,11.3,-3.3,20.8,8.7,-7.2,100,89,82,30.41,30.00,17,2,17,0.00
2012-12-13,22.4,16.2,11.1,20.4,14.0,8.2,93,91,88,30.37,30.01,11,2,11,0.00
2012-12-14,27.3,20.8,12.6,26.1,18.8,10.1,95,92,84,30.41,30.01,21,3,21,0.00
2012-12-15,33.3,30.8,27.3,31.6,29.5,25.8,96,95,93,30.01,29.41,15,4,17,0.00
2012-12-16,32.4,26.8,18.6,31.4,25.7,16.9,97,95,93,29.67,29.39,11,1,11,0.08
2012-12-17,18.6,17.3,16.0,16.9,15.4,14.1,93,92,92,29.81,29.66,7,1,10,0.00
2012-12-18,21.5,17.5,12.8,19.8,15.6,10.1,93,92,89,29.92,29.75,5,0,5,0.00
2012-12-19,26.3,24.0,20.3,24.6,22.2,18.6,95,93,90,30.02,29.84,9,0,11,0.00
2012-12-20,23.3,18.5,8.3,20.8,16.7,5.7,100,93,89,30.13,29.94,17,4,18,0.00
2012-12-21,10.5,3.4,-5.5,7.7,0.5,-9.1,99,87,83,30.60,30.13,15,2,16,0.00
2012-12-22,19.6,6.6,-6.0,15.5,3.2,-9.7,91,86,77,30.52,30.14,19,3,20,0.00
2012-12-23,10.7,5.2,1.3,5.9,2.0,-1.7,98,86,80,30.43,30.25,16,4,20,0.00
2012-12-24,2.8,-2.0,-5.9,-0.4,-5.3,-9.5,87,86,84,30.72,30.32,11,3,13,0.00
2012-12-25,3.2,-5.9,-11.2,0.0,-9.5,-15.4,86,84,81,31.09,30.70,9,2,11,0.00
2012-12-26,9.9,-0.9,-14.4,7.3,-4.1,-18.6,89,86,81,30.99,30.67,7,0,9,0.00
2012-12-27,16.6,8.4,-6.5,12.9,5.4,-10.3,89,87,83,30.72,30.40,4,0,4,0.00
2012-12-28,20.7,12.9,7.7,16.2,9.4,4.3,89,86,77,30.42,30.19,6,0,7,0.01
2012-12-29,20.0,12.6,3.3,16.5,9.5,-0.4,90,87,83,30.22,30.12,10,1,12,0.01
2012-12-30,15.9,9.2,-2.3,13.3,5.8,-6.3,98,86,79,30.39,29.97,16,2,17,0.00
2012-12-31,14.1,-0.2,-9.0,11.5,-4.1,-12.8,92,83,75,30.66,29.96,19,5,21,0.00
2013-1-1,10.3,0.1,-11.6,7.0,-3.7,-15.5,90,83,70,30.66,30.23,17,2,20,0.00